C/2017 O1 ( ASASSN )

Japanese version
Home page
Updated on November 25, 2017

---------------------------------------------------------------------

* Profile

Discovery Date July 19, 2017
Magnitude 15.3 mag
Discoverer All-Sky Automated Survey for Supernovae (ASASSN)

* Pictures

* Orbital Elements

Epoch 2017 Oct. 14.0 TT = JDT 2458040.5
T 2017 Oct. 14.78540 TT                                 MPCW
q   1.4986888            (2000.0)            P               Q
z  +0.0023774      Peri.   20.90803     +0.72168183     -0.63352065
 +/-0.0000025      Node    25.80956     +0.50849267     +0.21171963
e   0.9964371      Incl.   39.84848     +0.46969196     +0.74419512
From 1975 observations 2017 July 19-Nov. 2, mean residual 0".4.

* Finding Charts

* Magnitudes Graph

        m1 = 7.0 + 5 log d + 10.0 log r(t + 45)

---------------------------------------------------------------------

The orbital elements are published on M.P.E.C. 2017-V13.
The charts are made with StellaNavigator Ver.10 (AstroArts).
The magnitudes graphs are made with Comet for Windows.

---------------------------------------------------------------------

Copyright(C) Seiichi Yoshida (comet@aerith.net). All rights reserved.